Flag for Poland Weather past 2 weeks in Szczecin, Poland

Now
57 °F

Clear.


Feels Like: 56 °F
Forecast: 53 / 72 °F
Wind: 7 mph from East

Location: Szczecin Airport

Current Time: Sep 16, 2014 at 6:59:55 AM

Latest Report: Sep 16, 2014 at 6:30 AM


Visibility: 10 mi

Pressure: 30.15 "Hg

Humidity: 77%

Dew point: 50 °F

Location of SzczecinLocation

Historic Weather in Szczecin — Graph

°F

Szczecin temperature yesterday

Maximum temperature yesterday: 79 °F (at 4:30 PM)
Minimum temperature yesterday: 59 °F (at 4:30 AM)
Average temperature yesterday: 67 °F

Past Weeks' High & Low Weather Summary

 TemperatureHumidityPressure
High79 °F (Sep 15, 4:30 PM)100% (Sep 1, 6:00 AM)30.33 "Hg (Sep 1, 6:00 AM)
Low48 °F (Sep 10, 10:30 PM)39% (Sep 6, 2:30 PM)29.89 "Hg (Sep 7, 3:30 PM)
Average62 °F81%30.08 "Hg
* Reported Sep 1 6:00 AM — Sep 16 6:00 AM, Szczecin, Weather by CustomWeather, © 2014

Note: Actual official high and low records may vary slightly from our data, if they occured in-between our weather recording intervals... More about our weather records

Advertising

Szczecin weather history for previous 24 hours

 ConditionsComfort  
Time TempWeatherWind HumidityBarometerVisibility
6:00 AM
Sep 16
57 °FClear.7 mph82%30.15 "Hg10 mi
5:30 AM57 °FClear.7 mph82%30.15 "Hg10 mi
5:00 AM57 °FClear.7 mph82%30.15 "Hg10 mi
4:30 AM59 °FClear.8 mph77%30.15 "Hg10 mi
4:00 AM59 °FClear.8 mph77%30.15 "Hg10 mi
3:00 AM61 °FClear.7 mph77%30.15 "Hg10 mi
2:30 AM61 °FClear.6 mph77%30.15 "Hg10 mi
2:00 AM61 °FClear.6 mph77%30.15 "Hg10 mi
1:30 AM61 °FClear.7 mph77%30.15 "Hg10 mi
1:00 AM61 °FClear.8 mph77%30.15 "Hg10 mi
12:30 AM63 °FClear.8 mph73%30.18 "Hg10 mi
12:00 AM63 °FClear.8 mph73%30.18 "Hg10 mi
11:30 PM
Sep 15
64 °FClear.7 mph68%30.15 "Hg10 mi
11:00 PM64 °FClear.7 mph68%30.15 "Hg10 mi
10:30 PM64 °FClear.7 mph68%30.15 "Hg10 mi
10:00 PM64 °FClear.6 mph73%30.15 "Hg10 mi
9:30 PM64 °FClear.6 mph73%30.15 "Hg10 mi
9:00 PM66 °FClear.6 mph68%30.15 "Hg10 mi
8:30 PM66 °FClear.7 mph68%30.15 "Hg10 mi
8:00 PM66 °FSunny.6 mph68%30.15 "Hg10 mi
7:30 PM70 °FSunny.5 mph60%30.15 "Hg10 mi
7:00 PM72 °FSunny.5 mph57%30.12 "Hg10 mi
6:30 PM73 °FSunny.6 mph53%30.12 "Hg10 mi
6:00 PM75 °FSunny.6 mph47%30.12 "Hg10 mi
5:30 PM77 °FSunny.5 mph44%30.15 "Hg10 mi
5:00 PM77 °FSunny.6 mph44%30.12 "Hg10 mi
4:30 PM79 °FPassing clouds.8 mph42%30.12 "HgN/A
4:00 PM77 °FPassing clouds.7 mph44%30.15 "HgN/A
3:30 PM77 °FSunny.9 mph47%30.15 "Hg10 mi
3:00 PM77 °FSunny.9 mph47%30.15 "Hg10 mi
2:30 PM77 °FSunny.8 mph44%30.15 "Hg10 mi
2:00 PM77 °FPassing clouds.8 mph44%30.15 "HgN/A
1:30 PM75 °FPassing clouds.8 mph47%30.15 "HgN/A
1:00 PM77 °FSunny.10 mph47%30.15 "Hg10 mi
12:30 PM75 °FPassing clouds.8 mph50%30.15 "HgN/A
12:00 PM73 °FSunny.7 mph53%30.18 "Hg10 mi
11:30 AM73 °FSunny.7 mph53%30.18 "Hg10 mi
11:00 AM72 °FSunny.7 mph61%30.18 "Hg10 mi
10:30 AM70 °FSunny.8 mph64%30.18 "Hg10 mi
10:00 AM68 °FSunny.6 mph64%30.18 "Hg10 mi
9:30 AM66 °FSunny.7 mph68%30.15 "Hg10 mi
9:00 AM64 °FPassing clouds.8 mph73%30.15 "HgN/A
8:30 AM63 °FSunny.8 mph77%30.15 "Hg10 mi
8:00 AM61 °FSunny.8 mph83%30.15 "Hg10 mi
7:30 AM59 °FClear.8 mph82%30.15 "Hg10 mi
7:00 AM59 °FClear.7 mph82%30.15 "Hg10 mi
6:30 AM59 °FClear.8 mph88%30.15 "Hg10 mi
6:00 AM59 °FClear.8 mph88%30.15 "Hg10 mi
Weather by CustomWeather, © 2014

See weather overviewHow to use our weather pages